Location: Arborea
(39.7744°N, 8.5819°E)
Time: 19:46:29
(UTC+00:00)

CZ-2C DEB - Pass Details

Date: 23 August 2022
Orbit: 681 x 927 km, 97.9° (Epoch: 03 October)

Event Time Altitude Azimuth Distance (km) Brightness Sun altitude
Rises 22:38:29 0° 355° (N) 3,307 ? -37.7°
Reaches altitude 10° 22:41:28 10° 337° (NNW) 2,419 ? -37.9°
Enters shadow 22:44:56 18° 296° (WNW) 1,963 ? -38.1°
